Location: ????
(35.7382°N, 51.5600°E)
Time: 05:40:05
(UTC+00:00)

Daily predictions for brighter satellites

Satellite Brightness Start Highest point End
(mag) Time Altitude Azimuth Time Altitude Azimuth Time Altitude Azimuth
Cosmos 2074 Rocket 4.5 00:13:15 51° NNE 00:13:15 51° NNE 00:17:46 10° N
NOSS 3-2 (C) 3.9 00:15:02 76° WSW 00:15:12 76° WSW 00:23:44 10° SSE
H-2A R/B 4.3 00:12:06 10° NNE 00:14:36 29° NE 00:14:36 29° NE
MSX 4.4 00:12:11 10° NNE 00:17:47 53° E 00:21:29 21° S
Cosmos 2237 Rocket 4.0 00:24:17 20° N 00:24:17 20° N 00:26:06 10° N
IDEFIX/ARIANE 42P 3.6 00:30:59 10° N 00:33:57 34° N 00:33:57 34° N
ATLAS 3B R/B 2.5 00:34:33 52° NW 00:36:22 83° WSW 00:43:20 10° SSE
Cosmos 1606 Rocket 3.8 00:41:29 65° E 00:41:30 65° E 00:45:48 10° SSE
CENTAUR R/B 3.1 00:38:52 34° NW 00:43:02 70° WSW 00:51:41 10° SSE
Cosmos 1437 Rocket 3.4 00:46:29 51° ESE 00:46:38 51° E 00:50:19 10° NNE
GP-B 4.2 00:52:54 10° SSE 00:57:07 45° E 01:01:21 10° NNE
Cosmos 1850 Rocket 4.0 00:55:19 10° SSW 01:00:25 80° ESE 01:05:36 10° NNE
Cosmos 2228 2.8 00:58:49 20° N 01:01:44 84° W 01:05:57 10° S
Milstar 3 3.6 00:58:40 25° SW 01:02:10 41° S 01:08:27 10° ESE
Cosmos 1674 3.1 01:01:59 10° S 01:05:37 60° E 01:09:17 10° NNE
IUS-9 SRM-1 4.1 01:06:10 13° SSE 01:06:21 13° SSE 01:08:12 10° SE
CZ-4B R/B 4.1 01:02:19 10° NNE 01:06:28 76° E 01:10:47 10° S
DELTA 2 R/B (1) 4.2 01:03:56 27° SSW 01:06:41 49° SSE 01:12:01 10° ENE
Cosmos 962 Rocket 4.5 01:00:54 10° S 01:07:11 88° E 01:13:34 10° N
ATLAS 2AS CENTAUR R/B 4.4 01:07:45 19° NW 01:08:40 19° NW 01:14:04 10° N
CZ-2C R/B 2.4 01:05:17 10° N 01:10:27 77° WNW 01:15:29 10° SSW
PAYLOAD A 4.0 01:10:16 10° N 01:15:07 55° WNW 01:20:08 10° SSW
SL-16 R/B 2.7 01:16:51 34° W 01:17:42 36° WNW 01:22:54 10° N
Cosmos 1603 4.2 01:12:18 10° S 01:17:48 60° ESE 01:23:22 10° NNE
Okean 1-7 Rocket 3.8 01:17:07 33° SW 01:18:36 47° W 01:22:57 10° N
Cosmos 1726 Rocket 3.5 01:16:09 10° NNW 01:20:22 52° W 01:24:34 10° S
Meteor 2-10 4.0 01:15:04 10° N 01:20:23 84° W 01:25:53 10° S
Cosmos 2154 Rocket 4.2 01:16:03 10° SSW 01:21:52 43° W 01:27:45 10° N
Meteor 1-31 Rocket 2.6 01:19:01 10° N 01:22:46 62° WNW 01:26:31 10° SSW
Meteor 1-16 Rocket 4.2 01:25:38 10° NNW 01:30:49 52° W 01:36:06 10° S
PSLV R/B 4.2 01:31:20 23° N 01:31:35 24° N 01:33:48 10° ENE
Meteor 1-24 Rocket 3.9 01:25:56 10° S 01:31:41 81° E 01:37:39 10° N
ALOS 3.8 01:29:56 10° NNE 01:34:18 39° E 01:38:38 10° SSE
USA 267 4.4 01:29:46 10° NNE 01:34:50 25° NNW 01:37:54 17° WNW
Cosmos 1602 Rocket 4.0 01:31:26 10° S 01:35:42 65° E 01:39:58 10° NNE
Cosmos 2297 3.9 01:31:43 10° NNW 01:37:14 50° WSW 01:42:43 10° S
Cosmos 1484 Rocket 2.8 01:33:46 10° NNE 01:37:37 80° ESE 01:41:31 10° S
GPS 2-04 Rocket1 4.4 01:34:35 10° SW 01:38:11 30° SSE 01:41:52 10° E
Nadezhda 3 Rocket 4.4 01:36:22 10° NNW 01:42:10 39° W 01:47:55 10° SSW
ISS -2.5 01:39:44 10° SSW 01:42:55 41° SE 01:46:06 10° ENE
Cosmos 1943 3.3 01:42:07 10° SSW 01:47:48 80° ESE 01:53:30 10° NNE
Meteor PRIRODA 3.9 01:45:26 10° N 01:49:00 44° WNW 01:52:32 10° SSW
CZ-4B R/B 3.6 01:47:18 10° NNW 01:50:37 28° WNW 01:53:47 10° SW
H-2A R/B 4.1 01:48:40 10° NNW 01:51:10 16° WNW 01:51:10 16° WNW
Cosmos 1763 Rocket 3.6 01:46:15 10° NNW 01:51:24 80° ENE 01:56:28 10° SSE
Cosmos 2058 Rocket 3.6 01:48:32 10° NNW 01:52:35 35° W 01:56:39 10° SSW
Cosmos 2341 Rocket 4.4 01:49:00 10° SSW 01:54:48 40° WNW 02:00:37 10° N
Cosmos 2208 Rocket 4.3 01:53:34 10° NNW 01:58:49 71° ENE 02:04:06 10° SSE
Okean O Rocket 1.9 01:54:57 10° NNE 01:59:21 72° ESE 02:03:40 10° S
SKYMED 2 3.5 01:56:20 10° S 02:00:40 82° WSW 02:05:01 10° NNW
Cosmos 1959 Rocket 4.5 01:56:37 10° SSW 02:02:38 62° W 02:08:46 10° N
Milstar 3 Cent rocket 3.0 02:00:19 10° WSW 02:05:46 38° S 02:10:03 10° ESE
USA 234 3.3 01:59:24 10° SE 02:05:57 81° SW 02:12:31 10° NW
SL-8 Rocket 4.2 02:00:27 10° SSW 02:06:20 46° W 02:12:15 10° N
ASTEX 1 3.9 02:01:53 10° SSE 02:06:42 66° E 02:11:34 10° N
Cosmos 1726 3.5 02:06:28 10° NW 02:09:00 18° W 02:11:31 10° SW
SL-14 R/B 3.2 02:06:10 10° SSW 02:10:02 59° W 02:13:53 10° N
BREEZE-M DEB (TANK) 4.1 02:06:19 11° W 02:10:33 26° NNW 02:13:06 10° NE
Cosmos 44 Rocket 4.2 02:07:00 10° NW 02:10:52 25° WSW 02:14:42 10° SSW
USA 116 3.4 02:11:40 10° SSE 02:15:22 86° WSW 02:18:42 10° NNW
Cosmos 2366 rocket 4.2 02:11:36 10° SSW 02:17:43 50° W 02:23:51 10° N
Cosmos 1814 Rocket 4.2 02:14:46 10° NNW 02:20:09 81° ENE 02:25:28 10° SSE
NOAA 6 4.0 02:17:01 10° N 02:22:11 75° WNW 02:27:18 10° SSW
Cosmos 1271 Rocket 3.8 02:18:34 10° S 02:22:14 51° E 02:25:59 10° NNE
Cosmos 2369 Rocket 2.2 02:16:59 10° NNW 02:22:36 79° WSW 02:28:10 10° SSE
Gblst 52 Del rocket 4.4 02:19:20 10° NW 02:24:53 65° SW 02:31:01 10° SE
Helios 1A Rocket 3.3 02:21:36 10° N 02:25:34 44° WNW 02:29:30 10° SW
ATLAS 3B R/B 4.3 02:23:56 10° W 02:26:06 12° WSW 02:28:18 10° WSW
Centaur D AC-29 4.1 02:20:21 10° W 02:29:25 19° SW 02:33:20 10° S
